Hourly Data Report for August 16, 2022

TORONTO INTL A
ONTARIO
Current Station Operator: NAVCAN

43°40'36.000" N
79°37'50.000" W
173.40 m
6158731
71624
YYZ

Download Data

Hourly Data (August 2022)
Hourly Data Report for August 16, 2022
TIME
LST
Temp Definition
°C
Dew Point Definition
°C
Rel Hum Definition
%
Precip. Amount Definition
mm

Wind Dir Definition
10's deg

Wind Spd Definition
km/h
Visibility Definition
km
Stn Press Definition
kPa
Hmdx Definition


Wind Chill Definition


Weather Definition


00:00 19.6 14.4 71   36 17 24.1 99.70     LegendNANA
01:00 18.7 14.3 75   1 10 24.1 99.68     Mainly Clear
02:00 18.3 14.0 76   1 11 24.1 99.68     LegendNANA
03:00 17.6 13.0 74   2 8 24.1 99.68     LegendNANA
04:00 17.8 12.4 71   36 9 24.1 99.68     Mainly Clear
05:00 17.7 12.8 73   34 8 24.1 99.72     LegendNANA
06:00 17.5 13.3 76   34 13 24.1 99.78     LegendNANA
07:00 19.4 13.2 67   36 13 24.1 99.81     Clear
08:00 21.6 13.0 58   3 8 24.1 99.84     LegendNANA
09:00 24.4 13.0 48   2 5 24.1 99.84 27   LegendNANA
10:00 25.4 12.2 43   11 5 24.1 99.86 28   Clear
11:00 26.6 11.1 38   14 18 24.1 99.85 28   LegendNANA
12:00 24.9 14.1 51   15 16 24.1 99.84 28   LegendNANA
13:00 26.3 11.6 39   13 19 24.1 99.83 28   Mainly Clear
14:00 26.5 11.8 39   14 12 24.1 99.79 29   LegendNANA
15:00 27.4 11.5 37   14 13 24.1 99.74 29   LegendNANA
16:00 26.6 11.5 38   17 9 24.1 99.73 29   Mostly Cloudy
17:00 25.9 11.4 40   2 15 24.1 99.76 28   LegendNANA
18:00 25.3 11.0 40   2 18 24.1 99.79 27   LegendNANA
19:00 23.1 12.4 50   3 24 24.1 99.81 26   Mostly Cloudy
20:00 21.8 12.6 55   5 16 24.1 99.85     LegendNANA
21:00 21.3 13.3 60   2 10 24.1 99.83     LegendNANA
22:00 20.5 13.7 64   35 10 24.1 99.81     Mostly Cloudy
23:00 19.5 14.2 71   36 11 24.1 99.80     LegendNANA

Notes on Data Quality.

Legend

  • E = Estimated
  • M = Missing
  • NA = Not Available*
  • [empty] = Indicates an unobserved value
Date modified: